This demonstration page uses our WeatherBlox Daily Observations layout. Learn more.

Left ArrowRight Arrow

Hourly Observations for June 29, 2019

Temp ( °F °C ) Dew Point ( °F °C ) Humidity (%) Winds ( mph kmh ) Pressure ( in mb ) Visibility ( mi km ) Precip ( " mm )
12:56 am 00:56 Clear 82 28 75 24 79 79 E 5 7 29.93 1014 8 13 0.00 0.00
1:56 am 01:56 Clear 81 27 75 24 84 84 ESE 5 7 29.93 1014 7 11 0.00 0.00
2:56 am 02:56 Clear 81 27 75 24 84 84 ESE 6 9 29.93 1014 7 11 0.00 0.00
3:56 am 03:56 Clear 79 26 73 23 84 84 ESE 6 9 29.94 1014 7 11 0.00 0.00
4:56 am 04:56 Clear 79 26 73 23 84 84 ESE 5 7 29.95 1014 7 11 0.00 0.00
5:56 am 05:56 Sunny 79 26 73 23 84 84 ESE 3 6 29.95 1014 7 11 0.00 0.00
6:56 am 06:56 Sunny 79 26 73 23 84 84 SE 3 6 29.96 1015 7 11 0.00 0.00
7:56 am 07:56 Sunny 81 27 73 23 79 79 S 7 11 29.97 1015 7 11 0.00 0.00
8:56 am 08:56 Sunny 82 28 73 23 74 74 S 6 9 29.96 1015 7 11 0.00 0.00
9:56 am 09:56 Sunny 84 29 73 23 70 70 SSW 7 11 29.96 1014 7 11 0.00 0.00
10:56 am 10:56 Mostly Sunny 91 33 75 24 59 59 Calm 29.95 1014 7 11 0.00 0.00
11:56 am 11:56 Sunny 91 33 75 24 59 59 S 1 2 29.95 1014 7 11 0.00 0.00
12:56 pm 12:56 Sunny 93 34 75 24 56 56 SSE 7 11 29.95 1014 7 11 0.00 0.00
1:56 pm 13:56 Sunny 95 35 73 23 50 50 SSE 7 11 29.93 1014 7 11 0.00 0.00
2:56 pm 14:56 Mostly Sunny 95 35 73 23 50 50 S 9 15 29.92 1013 7 11 0.00 0.00
3:56 pm 15:56 Mostly Sunny 97 36 73 23 47 47 S 9 15 29.92 1013 10 16 0.00 0.00
4:56 pm 16:56 Sunny 95 35 73 23 50 50 SSE 12 19 29.91 1013 10 16 0.00 0.00
5:56 pm 17:56 Sunny 97 36 73 23 47 47 SSE 13 20 29.90 1013 10 16 0.00 0.00
7:56 pm 19:56 Sunny 97 36 79 26 56 56 SSE 14 22 29.93 1014 10 16 0.00 0.00
8:56 pm 20:56 Sunny 90 32 77 25 67 67 SSE 8 13 29.90 1013 10 16 0.00 0.00
9:56 pm 21:56 Clear 88 31 77 25 70 70 S 8 13 29.91 1013 10 16 0.00 0.00
10:59 pm 22:59 Clear 88 31 77 25 70 70 Calm 29.92 1013 10 16 0.00 0.00
11:56 pm 23:56 Clear 86 30 77 25 75 75 SSE 7 11 29.94 1014 10 16 0.00 0.00

Powered by AerisWeather